Weather History for Lawrence, KS

Change the Weather History Date:

Tuesday, February 19, 2013

  Actual Average Record
Temperature  
Mean Temperature 27 °F 35 °F  
Max Temperature 38 °F 47 °F 64 °F (2004)
Min Temperature 16 °F 24 °F 8 °F (2006)
Degree Days  
Heating Degree Days 38 30  
Month to date heating degree days 549 612  
Since 1 July heating degree days 3486 3763  
Cooling Degree Days 0 0  
Month to date cooling degree days 0 0  
Year to date cooling degree days 0 0  
Moisture  
Dew Point 9 °F    
Average Humidity 49    
Maximum Humidity 77    
Minimum Humidity 21    
Precipitation  
Precipitation 0.00 in 0.05 in 0.64 in (2002)
Month to date precipitation 0.84 0.88  
Year to date precipitation 1.80 1.89  
Sea Level Pressure  
Sea Level Pressure 30.29 in    
Wind  
Wind Speed 10 mph (NW)    
Max Wind Speed 22 mph    
Max Gust Speed 33 mph    
Visibility 10 miles    
Events      
T = Trace of Precipitation, MM = Missing Value Source: NWS Daily Summary

Daily Weather History Graph

Daily Weather History Graph

Search for Another Location

Airport:

Trip Planner

Search our weather history database for the weather conditions in past years. The results will help you decide how hot, cold, wet, or windy it might be!

Date:

Astronomy

Feb. 19, 2013 Rise Set
Actual Time 7:06 AM CST 6:03 PM CST
Civil Twilight 6:39 AM CST 6:30 PM CST
Nautical Twilight 6:08 AM CST 7:01 PM CST
Astronomical Twilight 5:37 AM CST 7:32 PM CST
Moon 12:36 PM CST (2/19) 2:37 AM CST (2/19)
Length of Visible Light 11h 50m
Length of Day
10h 56m
Waxing Gibbous, 67% of the Moon is Illuminated
Feb 19
Waxing Gibbous
Feb 25
Full
Mar 4
Last Quarter
Mar 11
New
Mar 19
First Quarter

Hourly Weather History & Observations

Time (CST) Temp. Windchill Dew Point Humidity Pressure Visibility Wind Dir Wind Speed Gust Speed Precip Events Conditions
12:52 AM 21.0 °F 16.2 °F 14.0 °F 74% 30.14 in 10.0 mi NW 3.5 mph - N/A   Clear
1:52 AM 23.0 °F 17.0 °F 15.1 °F 72% 30.14 in 10.0 mi NW 4.6 mph - N/A   Clear
2:52 AM 25.0 °F 14.8 °F 16.0 °F 69% 30.17 in 10.0 mi WNW 10.4 mph - N/A   Clear
3:52 AM 21.9 °F 12.5 °F 15.1 °F 75% 30.17 in 10.0 mi NW 8.1 mph - N/A   Clear
4:52 AM 24.1 °F 13.1 °F 16.0 °F 71% 30.20 in 10.0 mi WNW 11.5 mph - N/A   Clear
5:52 AM 24.1 °F 12.0 °F 16.0 °F 71% 30.23 in 10.0 mi WNW 13.8 mph - N/A   Clear
6:52 AM 21.9 °F 11.7 °F 15.1 °F 75% 30.26 in 10.0 mi NW 9.2 mph - N/A   Clear
7:52 AM 24.1 °F 13.1 °F 15.1 °F 69% 30.29 in 7.0 mi NW 11.5 mph - N/A   Clear
8:52 AM 25.0 °F 11.3 °F 12.9 °F 60% 30.31 in 10.0 mi NW 18.4 mph 24.2 mph N/A   Clear
9:52 AM 27.0 °F 13.9 °F 8.1 °F 45% 30.35 in 10.0 mi NW 18.4 mph 27.6 mph N/A   Clear
10:52 AM 28.9 °F 17.7 °F 8.1 °F 41% 30.35 in 10.0 mi NW 15.0 mph - N/A   Clear
12:52 PM 34.0 °F 23.4 °F 5.0 °F 30% 30.35 in 10.0 mi NW 17.3 mph 32.2 mph N/A   Clear
1:52 PM 36.0 °F 28.0 °F 3.9 °F 26% 30.34 in 10.0 mi NW 11.5 mph 21.9 mph N/A   Clear
2:52 PM 37.0 °F 30.4 °F 1.9 °F 23% 30.33 in 10.0 mi WNW 9.2 mph - N/A   Clear
3:52 PM 37.0 °F 30.4 °F 1.0 °F 22% 30.32 in 10.0 mi NW 9.2 mph - N/A   Clear
4:52 PM 36.0 °F 28.0 °F 1.0 °F 23% 30.31 in 10.0 mi NW 11.5 mph - N/A   Clear
6:52 PM 27.0 °F 18.7 °F 3.9 °F 37% 30.32 in 10.0 mi NNE 8.1 mph - N/A   Clear
7:52 PM 23.0 °F 18.4 °F 3.0 °F 42% 30.35 in 9.0 mi NNW 3.5 mph - N/A   Clear
8:52 PM 21.9 °F - 3.0 °F 44% 30.37 in 9.0 mi Calm Calm - N/A   Clear
9:52 PM 21.9 °F 12.5 °F 5.0 °F 48% 30.35 in 10.0 mi NNE 8.1 mph - N/A   Clear
10:52 PM 19.9 °F 13.4 °F 3.9 °F 50% 30.38 in 10.0 mi West 4.6 mph - N/A   Clear
11:52 PM 21.9 °F 14.5 °F 3.9 °F 46% 30.39 in 10.0 mi NE 5.8 mph - N/A   Clear